Погода в Ключи

Погода в Ключи : погода сейчас, прогноз погоды и архив. Всё, что Вы хотите узнать о погоде в Ключи!

Поиск расширенной информации на нашем сайте:

Полезная информация: Базы данных Челябинска более 200 баз данных.

Другие новости

Новости СМИ2

Главная страница сайта

Новости сайта

02.10.2013

Напоминаем, что на нашем новом сайте вы можете получить высокодетализированные прогнозы погоды по пунктам России, СНГ и мира (включающие важные для авиации метеовеличины, такие как направление и скорость ветра, видимость, явления погоды, количество и форма облачности, нижняя и верхняя граница облачности), а также ознакомиться с разнообразными материалами по авиационной метеорологии и подборкой полезных ссылок на эту тему.

Сайт Метеоцентр.Азия посвящён разработке технологий оптимизации авиаметеорологического обслуживания, включая проектирование и перспективное создание нескольких автоматизированных авиаметеорологических систем:
- система выпуска высокодетальных прогностических карт явлений погоды для нижнего воздушного пространства по России и ближнему зарубежью;
- система верификации прогнозов TAF (выпускаемых синоптиками официальных АМСГ РФ и ближнего зарубежья) и AUTOTAF (выпускаемых сайтом Метеоцентр.Азия) - выявление ошибок, онлайн-сопоставление с фактической погодой METAR, автоматическое внесение коррективов в прогнозы при резком отклонении фактической погоды от прогноза, подсчёт оправдываемости прогнозов по элементам и в целом;
- система обработки, анализа и отображения авиаметеорологической информации для применения провайдерами метеорологической информации.

Рекомендуем: 24 И 48 форма Ян-ши тайдзицюань.

Погода в Ключи - сегодня

Время (UTC), дата Ветер
(°,м/с) 
Видим.   Явления Облачность Т
(°С)
Тd
(°С)
f(%) Тe
(°С)
Pmin
(гПа)
dP
(гПа)
Po
(мм)
O2
(г/м3)
Тmin Tmax R s Состояние
почвы
03 20.01.17 170 (Ю) 20000 м    3/0 верхняя 
[Ci fib]
-16.9 -19.2 82 -22  1029  -0.5  757  327           
06 20.01.17 160 (Ю) 20000 м    8/0 верхняя 
[Ci sp]
-13.9 -16.6 80 -18  1028.3  -0.5  757  323           
09 20.01.17 180 (Ю) 20000 м  слаб. ливневой снег  10/3 600 м кучево-дожд., средняя 
[Cb cap|Ac und]
-8.6 -10.8 84 -12  1026.1  -1.8  756  315           
12 20.01.17 190 (Ю) 10 км  слаб. снег{ливн. осадки}  10/0 средняя 
[As op]
-6.2 -7.9 88 -9  1025.3  -0.6  755  312    -6.2  0.4     
15 20.01.17 180 (Ю) 20000 м    10/0 средняя 
[Ac As]
-6.2 -8.3 85 -10  1024.5  -0.8  755  312           
18 20.01.17 180 (Ю) 20000 м    ясно 
-9.1 -11.1 85 -12  1023.4  -1.3  754  315           
21 20.01.17 180 (Ю) 20000 м    3/0 верхняя 
[Ci sp]
-9.9 -12.2 83 -14  1022.3  -1.2  753  316           
00 21.01.17 190 (Ю) 20000 м    8/0 верхняя 
[Ci sp]
-11 -13.1 84 -15  1020.9  -1.4  752  317  -11      27  неравномерный
сухой снег
100% 
03 21.01.17 180 (Ю) 20000 м    9/0 средняя, верхняя 
[Ac trans|Ci sp]
-11.3 -13.6 83 -15  1019.7  -1.2  751  317  -11.4         
06 21.01.17 190 (Ю) 20000 м    9/0 верхняя 
[Ci sp]
-7 -9.7 81 -11  1018.1  -1.2  750  311           
09 21.01.17 210 (ЮЗ) 20000 м  слаб. снег  9/0 средняя 
[As op]
-4.1 -7.1 80 -8  1016.2  -1.7  749  307           
12 21.01.17 220 (ЮЗ) 20000 м  {снег}  8/0 средняя, верхняя 
[Ac trans|Ci sp]
-5.9 -8.4 82 -8  1017.7  1.3  749  310    -3.9  0.2     
15 21.01.17 230 (ЮЗ) 20000 м    ясно 
-8.3 -12.2 73 -12  1019.1  1.2  750  313           
18 21.01.17 200 (Ю) 20000 м    ясно 
-8.5 -11.8 77 -13  1020.2  1.2  751  314           
21 21.01.17 210 (ЮЗ) 20000 м    ясно 
-8.4 -12.5 72 -12  1021.6  1.3  752  314           
00 22.01.17 200 (Ю) 20000 м    ясно 
-9.6 -13.8 71 -14  1022  0.3  752  315  -10.1      25  неравномерный
сухой снег
100% 
03 22.01.17 180 (Ю) 20000 м    8/0 средняя, верхняя 
[Ac As|Ci sp]
-10 -14.3 71 -14  1022.1  0.1  753  316  -10.2         
06 22.01.17 210 (ЮЗ) 6-10{11}  20000 м  позёмок  6/0 средняя 
[Ac As]
-5.6 -14.8 48 -10  1021.9  0.1  753  311           
09 22.01.17 210 (ЮЗ) 5{11}  20000 м    8/0 верхняя 
[Ci fib]
-5.5 -16.7 41 -9  1020.8  -1.1  752  311           
12 22.01.17 180 (Ю) 20000 м    3/0 верхняя 
[Ci fib]
-9.7 -14.7 67 -13  1020.8  -0.3  752  315    -5.1       
15 22.01.17 170 (Ю) 20000 м    10/0 верхняя 
[Ci sp]
-11 -14.9 73 -16  1019.2  -1.6  750  316           
18 22.01.17 170 (Ю) 20000 м    10/0 средняя 
[Ac As]
-8.6 -11.7 78 -13  1016.8  -2.2  749  313           
21 22.01.17 180 (Ю) 5{11}  20000 м    6/0 верхняя 
[Ci sp]
-4.4 -7.8 77 -8  1014.5  -2  747  307           
00 23.01.17 180 (Ю) 5{11}  20000 м    10/0 верхняя 
[Ci sp]
-2.8 -6.4 76 -6  1012.1  -2.2  746  304  -11.7      25  неравномерный
сухой снег
100% 
03 23.01.17 180 (Ю) 6-10{11}  10 км  позёмок{снег}  10/0 средняя 
[Ac As]
-2 -4.1 85 -6  1010.5  -1.6  744  303           
Время (UTC), дата Ветер
(°,м/с) 
Видим.   Явления Облачность Т
(°С)
Тd
(°С)
f(%) Тe
(°С)
Pmin
(гПа)
dP
(гПа)
Po
(мм)
O2
(г/м3)
Тmin Tmax R s Состояние
почвы

Для получения пояснительной информации подведите курсор к названию столбца.

ПОГОДА в Ключи - архив

Всё, что Вы хотите узнать о погоде в Ключи - удобно и подробно!

Выберите нужную дату (начиная с 1 января 2015* года) и нажмите кнопку "Найти".
Будут отображены архивные сводки погоды по пункту Ключи, начиная с указанной даты.


Отображать данные в формате CSV (для использования в таблицах Excel)


Внимание! Наш архив погоды предназначен исключительно для личного некоммерческого использования в познавательных целях. Если Вам необходимы официальные справки о состоянии погоды (для производственных, юридических, коммерческих и т.п. целей), обращайтесь в органы Росгидромета.

*Примечание: данная дата относится к архиву по метеостанциям СССР (Россия, СНГ, Балтия).
Архив по метеостанциям Зарубежной Европы и Азии (кроме Китая) хранится 10 дней, по другим регионам земного шара (Китай, Африка, Америка, Австралия, Океания) - 1 день.

Ключи - район местоположения метеостанции


Название, широта, долгота, высота метеостанции:
Ключи 52.2°ш. 79.1°д. 143 м над ур. моря [Российская Федерация]

Дополнительная информация

В oтличие oт бoльшинства пoгoдных сайтoв мы публикуем пoдрoбную метеoинфoрмацию в детальнoм прoфессиoнальнoм фoрмате.

Характеристики температуры и влажнoсти вoздуха измеряются на высoте 2 м в тени вдали oт зданий и деревьев.
Скoрoсть ветра измеряется на высoте 10 м (на урoвне рoста челoвека скoрoсть ветра ниже в 1.5-2 раза). Если метеoстанция нахoдится в гoрoде или в лесу, тo скoрoсть ветра занижена на 2-4 м/с пo сравнению с oткрытым местoм. Скoрoсть ветра над акватoриями крупных рек и oзёр, а также на вершинах хoлмoв на 2-5 м/с выше, чем в oбычных услoвиях.
Атмoсфернoе давление в разных тoчках местнoсти мoжет значительнo oтличаться oт давления на метеoстанции, в зависимoсти oт услoвий рельефа (при пoдъёме на 10 м давление пoнижается примернo на 1 мм рт.ст.).